Volver al catálogo

NOAA 6

ActivoMeteoSSO
NORAD 11416·PAYLOAD·🇺🇸 United States

Lanzado Jun 27, 1979 desde Vandenberg Space Force Base

Loading…

Próximos Pases (próximas 24 horas)

TLE

ActualizadoSource: Space-Track

Época: Sep 14, 2026, 02:19 UTC

1 11416U 79057A   26257.09719032  .00000174  00000-0  75684-4 0  9990
2 11416  98.5588 285.9242 0009829   1.3524 358.7686 14.35536224463712

Sigue NOAA 6 en tiempo real con AllMySat

Download on the App Store